Weather History for EINN - February, 2013

Change the Weather History Date:

Thursday, February 28, 2013

  Actual Average Record
Temperature  
Mean Temperature 38 °F -  
Max Temperature 41 °F 51 °F 54 °F (2015)
Min Temperature 35 °F 38 °F 28 °F (2001)
Degree Days  
Heating Degree Days 27    
Moisture  
Dew Point 34 °F    
Average Humidity 86    
Maximum Humidity 100    
Minimum Humidity 72    
Precipitation  
Precipitation 0.00 in 0.09 in - ()
Sea Level Pressure  
Sea Level Pressure 30.55 in    
Wind  
Wind Speed 8 mph ()    
Max Wind Speed 14 mph    
Max Gust Speed -    
Visibility 5.2 miles    
Events      
Averages and records for this station are not official NWS values.
T = Trace of Precipitation, MM = Missing Value Source: Averaged Metar Reports

Daily Weather History Graph

Daily Weather History Graph

Search for Another Location

Airport or City:

Trip Planner

Search our weather history database for the weather conditions in past years. The results will help you decide how hot, cold, wet, or windy it might be!

Date:

Astronomy

Feb. 28, 2013 Rise Set
Actual Time 7:24 AM GMT 6:12 PM GMT
Civil Twilight 6:49 AM GMT 6:47 PM GMT
Nautical Twilight 6:10 AM GMT 7:27 PM GMT
Astronomical Twilight 5:30 AM GMT 8:07 PM GMT
Moon 9:58 PM GMT (2/28) 7:57 AM GMT (2/28)
Length of Visible Light 11h 57m
Length of Day
10h 48m
Waning Gibbous, 92% of the Moon is Illuminated
Feb 28
Waning Gibbous
Mar 4
Last Quarter
Mar 11
New
Mar 19
First Quarter
Mar 27
Full

Hourly Weather History & Observations

Time (GMT) Temp. Windchill Dew Point Humidity Pressure Visibility Wind Dir Wind Speed Gust Speed Precip Events Conditions
12:00 AM 38 °F - 34 °F 81% 30.62 in 4 mi NE 6.7 mph - -   Mist
12:00 AM 37.4 °F 32.8 °F 33.8 °F 87% 30.60 in 4.3 mi NE 5.8 mph - N/A   Overcast
12:30 AM 37.4 °F 29.8 °F 33.8 °F 87% 30.60 in 5.6 mi NNE 11.5 mph - N/A   Overcast
1:00 AM 37.4 °F 30.3 °F 33.8 °F 87% 30.60 in 5.6 mi NNE 10.4 mph - N/A   Overcast
1:30 AM 37.4 °F 30.3 °F 32.0 °F 81% 30.60 in 5.6 mi NE 10.4 mph - N/A   Overcast
2:00 AM 35.6 °F 28.6 °F 32.0 °F 87% 30.60 in 5.6 mi NNE 9.2 mph - N/A   Overcast
2:30 AM 35.6 °F 28.6 °F 32.0 °F 87% 30.57 in 5.6 mi NNE 9.2 mph - N/A   Mostly Cloudy
3:00 AM 35.6 °F 29.2 °F 33.8 °F 93% 30.57 in 5.6 mi NE 8.1 mph - N/A   Overcast
3:30 AM 35.6 °F 30.7 °F 32.0 °F 87% 30.57 in 5.6 mi NE 5.8 mph - N/A   Overcast
4:00 AM 35.6 °F 31.7 °F 32.0 °F 87% 30.57 in 5.6 mi NNE 4.6 mph - N/A   Overcast
4:30 AM 35.6 °F 29.9 °F 32.0 °F 87% 30.57 in 5.6 mi NNE 6.9 mph - N/A   Overcast
5:00 AM 35.6 °F 29.2 °F 32.0 °F 87% 30.57 in 5.6 mi NE 8.1 mph - N/A   Overcast
5:30 AM 35.6 °F 27.5 °F 32.0 °F 87% 30.57 in 5.6 mi NNE 11.5 mph - N/A   Overcast
6:00 AM 35 °F - 32 °F 84% 30.57 in 6 mi NNE 8.9 mph - -   Mist
6:00 AM 35.6 °F 29.2 °F 32.0 °F 87% 30.57 in 5.6 mi NNE 8.1 mph - N/A   Overcast
6:30 AM 35.6 °F 28.6 °F 32.0 °F 87% 30.57 in 5.6 mi NE 9.2 mph - N/A   Overcast
7:00 AM 35.6 °F 29.9 °F 32.0 °F 87% 30.57 in 4.3 mi NE 6.9 mph - N/A   Overcast
7:30 AM 35.6 °F 28.6 °F 32.0 °F 87% 30.57 in 3.1 mi NNE 9.2 mph - N/A   Overcast
8:00 AM 35.6 °F 28.6 °F 32.0 °F 87% 30.57 in 3.1 mi NE 9.2 mph - N/A   Overcast
8:30 AM 35.6 °F 29.2 °F 28.4 °F 75% 30.57 in 3.1 mi NE 8.1 mph - N/A   Overcast
9:00 AM 35.6 °F 28.0 °F 32.0 °F 87% 30.57 in 3.1 mi NE 10.4 mph - N/A   Overcast
9:30 AM 35.6 °F 27.1 °F 32.0 °F 87% 30.57 in 3.7 mi NNE 12.7 mph - N/A   Overcast
10:00 AM 35.6 °F 27.1 °F 32.0 °F 87% 30.57 in 3.7 mi NNE 12.7 mph - N/A   Overcast
10:30 AM 35.6 °F 28.0 °F 32.0 °F 87% 30.57 in 3.7 mi NNE 10.4 mph - N/A   Mostly Cloudy
11:00 AM 35.6 °F 27.5 °F 32.0 °F 87% 30.57 in 3.7 mi NNE 11.5 mph - N/A   Mostly Cloudy
11:30 AM 35.6 °F 26.6 °F 32.0 °F 87% 30.57 in 3.7 mi NNE 13.8 mph - N/A   Mostly Cloudy
12:00 PM 37 °F - 31 °F 72% 30.58 in 4 mi ENE 8.9 mph - -   Mist
12:00 PM 37.4 °F 31.4 °F 32.0 °F 81% 30.57 in 3.7 mi ENE 8.1 mph - N/A   Mostly Cloudy
12:30 PM 37.4 °F 30.8 °F 32.0 °F 81% 30.54 in 3.7 mi NNE 9.2 mph - N/A   Mostly Cloudy
1:00 PM 39.2 °F 32.0 °F 32.0 °F 75% 30.54 in 3.7 mi NNE 11.5 mph - N/A   Scattered Clouds
1:30 PM 39.2 °F 33.6 °F 32.0 °F 75% 30.54 in 5.0 mi NNE 8.1 mph - N/A   Scattered Clouds
2:00 PM 41.0 °F 37.1 °F 33.8 °F 76% 30.54 in 5.6 mi NE 5.8 mph - N/A   Mostly Cloudy
2:30 PM 41.0 °F 33.9 °F 35.6 °F 81% 30.54 in 6.2 mi NNE 12.7 mph - N/A   Mostly Cloudy
3:00 PM 41.0 °F 34.3 °F 35.6 °F 81% 30.51 in 6.2 mi NNE 11.5 mph - N/A   Mostly Cloudy
3:30 PM 41.0 °F 34.7 °F 37.4 °F 87% 30.51 in 6.2 mi NE 10.4 mph - N/A   Mostly Cloudy
4:00 PM 41.0 °F 34.7 °F 37.4 °F 87% 30.51 in 6.2 mi NE 10.4 mph - N/A   Mostly Cloudy
4:30 PM 41.0 °F 35.2 °F 37.4 °F 87% 30.51 in 6.2 mi NE 9.2 mph - N/A   Mostly Cloudy
5:00 PM 41.0 °F 35.2 °F 37.4 °F 87% 30.51 in 6.2 mi NE 9.2 mph - N/A   Mostly Cloudy
5:30 PM 41.0 °F 36.4 °F 37.4 °F 87% 30.51 in 6.2 mi NE 6.9 mph - N/A   Mostly Cloudy
6:00 PM 41 °F - 37 °F 82% 30.52 in 7 mi NNE 6.7 mph - -   Mist
6:00 PM 41.0 °F 37.1 °F 37.4 °F 87% 30.51 in 6.2 mi NNE 5.8 mph - N/A   Mostly Cloudy
6:30 PM 41.0 °F 38.0 °F 37.4 °F 87% 30.51 in 6.2 mi North 4.6 mph - N/A   Mostly Cloudy
7:00 PM 41.0 °F 39.0 °F 37.4 °F 87% 30.51 in 6.2 mi NNW 3.5 mph - N/A   Mostly Cloudy
7:30 PM 41.0 °F 36.4 °F 37.4 °F 87% 30.51 in 6.2 mi North 6.9 mph - N/A   Mostly Cloudy
8:00 PM 39.2 °F 35.9 °F 35.6 °F 87% 30.51 in 6.2 mi North 4.6 mph - N/A   Mostly Cloudy
8:30 PM 37.4 °F - 35.6 °F 93% 30.51 in 6.2 mi Variable 2.3 mph - N/A   Partly Cloudy
9:00 PM 37.4 °F 32.1 °F 35.6 °F 93% 30.51 in 6.2 mi NNW 6.9 mph - N/A   Partly Cloudy
9:30 PM 35.6 °F 30.7 °F 33.8 °F 93% 30.51 in 6.2 mi North 5.8 mph - N/A   Partly Cloudy
10:00 PM 35.6 °F 30.7 °F 33.8 °F 93% 30.51 in 6.2 mi North 5.8 mph - N/A   Partly Cloudy
10:30 PM 35.6 °F 31.7 °F 35.6 °F 100% 30.51 in 6.2 mi NW 4.6 mph - N/A   Partly Cloudy
11:00 PM 35.6 °F 29.9 °F 33.8 °F 93% 30.51 in 6.2 mi NW 6.9 mph - N/A   Partly Cloudy
11:30 PM 35.6 °F 28.6 °F 33.8 °F 93% 30.51 in 6.2 mi NW 9.2 mph - N/A   Partly Cloudy